Simultaneous Nadir Overpasses (SNOs) Predictions

Prediction of SNOs over PacNW region [( 10.00, 139.50) to ( 22.70, 165.60)] between AQUA and NPP Satellites:

Table of predicted SNOs over PacNW region for the next 30.0 days since TLE Epoch: 11/24/2018
Index Date (AQUA) Time (AQUA) AQUA Lat,Lon Date (NPP) Time (NPP) NPP Lat,Lon Distance(km) Time Diff (sec)
1 11/27/2018 15:59:16 22.58, 147.48 11/27/2018 16:02:13 23.27, 144.49 315.77 177
2 12/05/2018 15:09:48 22.64, 159.86 12/05/2018 15:11:28 23.24, 157.16 284.40 100
3 12/08/2018 03:31:38 22.67, 147.53 12/08/2018 03:28:09 24.12, 145.32 277.71 209
4 12/13/2018 15:59:14 22.63, 147.50 12/13/2018 16:02:12 23.30, 144.48 318.63 178
5 12/21/2018 15:09:45 22.62, 159.87 12/21/2018 15:11:27 23.23, 157.14 288.15 102




NCC Satellite Simultaneous Nadir Overpasses (SNOs) Prediction Service
